Date String (YYYY-MM-DD hh:mm:ss) UTC,Instrument flags,absolute air pressure of the measurement (hPa),sample flow rate (lpm),inlet stack bypass flow (lpm),air temperature of the measurement (°C),ambient temperature measured by the external sensor (°C),aerosol sample conditioner tube jacket temperature (°C),OPC LED temperature (°C),internal box temperature (°C),relative humidity of the measurement (%),span deviation,mass concentration of particles derived from Lorenz-Mie calculation of OPC scattering (μg/m³),mass concentration of particles derived from Lorenz-Mie calculation of OPC scattering (μg/m³),mass concentration of particles derived from Lorenz-Mie calculation of OPC scattering (μg/m³)
DateTimeUTC,F1_M11,P_M11,Q1_M11,Q2_M11,T1_M11,T2_M11,T3_M11,T4_M11,T5_M11,U1_M11,ZSPAN_M11,X0_M11,X2_M11,X1_M11
2024-05-22 04:00:00,SystemResetWarning,0829.0,5.00,000.00,026.7,025.8,000.0,035.2,028.4,011.4,0000.0,0002.39,0001.59,0001.24
2024-05-22 04:01:00,SystemResetWarning,0828.9,5.00,000.00,026.7,025.8,000.0,035.2,028.4,010.8,0000.0,0002.39,0001.61,0001.25
2024-05-22 04:02:00,SystemResetWarning,0828.9,4.99,000.00,026.7,025.8,000.0,035.2,028.4,010.6,0000.0,0002.38,0001.61,0001.25
2024-05-22 04:03:00,SystemResetWarning,0829.0,5.00,000.00,026.6,025.8,000.0,035.2,028.4,010.0,0000.0,0002.45,0001.65,0001.28
2024-05-22 04:04:00,SystemResetWarning,0829.1,5.00,000.00,026.6,025.7,000.0,035.2,028.3,010.1,0000.0,0002.48,0001.67,0001.30
2024-05-22 04:05:00,SystemResetWarning,0829.1,5.00,000.00,026.6,025.7,000.0,035.2,028.3,010.2,0000.0,0002.49,0001.67,0001.32
2024-05-22 04:06:00,SystemResetWarning,0829.1,5.00,000.00,026.6,025.7,000.0,035.2,028.3,010.2,0000.0,0002.54,0001.71,0001.36
2024-05-22 04:07:00,SystemResetWarning,0829.2,5.00,000.00,026.6,025.7,000.0,035.1,028.3,010.2,0000.0,0002.55,0001.72,0001.37
2024-05-22 04:08:00,SystemResetWarning,0829.2,5.00,000.00,026.6,025.7,000.0,035.1,028.3,010.5,0000.0,0002.52,0001.72,0001.39
2024-05-22 04:09:00,SystemResetWarning,0829.1,5.00,000.00,026.6,025.7,000.0,035.1,028.3,011.0,0000.0,0002.39,0001.69,0001.39
2024-05-22 04:10:00,SystemResetWarning,0829.2,5.00,000.00,026.6,025.7,000.0,035.1,028.4,010.6,0000.0,0002.25,0001.63,0001.39
2024-05-22 04:11:00,SystemResetWarning,0829.1,5.00,000.00,026.6,025.8,000.0,035.1,028.4,010.0,0000.0,0002.17,0001.64,0001.40
2024-05-22 04:12:00,SystemResetWarning,0829.1,5.00,000.00,026.6,025.8,000.0,035.0,028.4,009.7,0000.0,0002.27,0001.69,0001.41
2024-05-22 04:13:00,SystemResetWarning,0829.1,4.99,000.00,026.6,025.8,000.0,035.0,028.4,009.5,0000.0,0002.30,0001.72,0001.43
2024-05-22 04:14:00,SystemResetWarning,0829.1,5.00,000.00,026.6,025.8,000.0,035.0,028.4,009.4,0000.0,0002.33,0001.74,0001.44
2024-05-22 04:15:00,SystemResetWarning,0828.9,5.01,000.00,026.6,025.8,000.0,035.0,028.4,009.6,0000.0,0002.37,0001.77,0001.46
2024-05-22 04:16:00,SystemResetWarning,0829.1,5.01,000.00,026.6,025.8,000.0,035.0,028.4,009.3,0000.0,0002.38,0001.79,0001.48
2024-05-22 04:17:00,SystemResetWarning,0829.1,4.99,000.00,026.6,025.8,000.0,035.0,028.4,009.5,0000.0,0002.44,0001.80,0001.49
2024-05-22 04:18:00,SystemResetWarning,0829.1,4.99,000.00,026.6,025.8,000.0,035.0,028.4,009.4,0000.0,0002.52,0001.84,0001.51
2024-05-22 04:19:00,SystemResetWarning,0829.2,4.99,000.00,026.6,025.8,000.0,035.0,028.4,009.4,0000.0,0002.60,0001.88,0001.52
2024-05-22 04:20:00,SystemResetWarning,0829.2,5.01,000.00,026.6,025.8,000.0,035.0,028.4,009.5,0000.0,0002.76,0001.96,0001.54
2024-05-22 04:21:00,SystemResetWarning,0829.2,5.00,000.00,026.6,025.8,000.0,035.0,028.4,009.7,0000.0,0002.78,0001.98,0001.56
2024-05-22 04:22:00,SystemResetWarning,0829.3,5.00,000.00,026.6,025.8,000.0,035.0,028.4,009.6,0000.0,0002.81,0001.97,0001.57
2024-05-22 04:23:00,SystemResetWarning,0829.3,5.00,000.00,026.6,025.8,000.0,035.0,028.4,009.7,0000.0,0002.69,0001.93,0001.58
2024-05-22 04:24:00,SystemResetWarning,0829.4,4.99,000.00,026.6,025.9,000.0,035.0,028.4,009.7,0000.0,0002.64,0001.92,0001.59
2024-05-22 04:25:00,SystemResetWarning,0829.4,4.99,000.00,026.6,025.9,000.0,035.0,028.4,009.8,0000.0,0002.56,0001.89,0001.58
2024-05-22 04:26:00,SystemResetWarning,0829.4,5.00,000.00,026.6,025.9,000.0,035.0,028.4,009.8,0000.0,0002.54,0001.88,0001.58
2024-05-22 04:27:00,SystemResetWarning,0829.4,5.01,000.00,026.6,025.9,000.0,035.0,028.4,009.9,0000.0,0002.60,0001.89,0001.56
2024-05-22 04:28:00,SystemResetWarning,0829.3,5.00,000.00,026.6,025.9,000.0,035.0,028.4,010.1,0000.0,0002.61,0001.89,0001.55
2024-05-22 04:29:00,SystemResetWarning,0829.3,5.00,000.00,026.6,025.9,000.0,035.0,028.4,010.0,0000.0,0002.61,0001.89,0001.54
2024-05-22 04:30:00,SystemResetWarning,0829.3,5.00,000.00,026.6,025.9,000.0,035.0,028.4,010.1,0000.0,0002.58,0001.87,0001.54
2024-05-22 04:31:00,SystemResetWarning,0829.4,5.00,000.00,026.6,025.8,000.0,035.0,028.4,010.2,0000.0,0002.60,0001.85,0001.54
2024-05-22 04:32:00,SystemResetWarning,0829.4,5.00,000.00,026.6,025.8,000.0,035.0,028.4,010.1,0000.0,0002.55,0001.84,0001.55
2024-05-22 04:33:00,SystemResetWarning,0829.3,5.00,000.00,026.6,025.8,000.0,035.0,028.4,010.3,0000.0,0002.51,0001.85,0001.55
2024-05-22 04:34:00,SystemResetWarning,0829.3,5.00,000.00,026.6,025.8,000.0,035.0,028.4,010.4,0000.0,0002.50,0001.86,0001.53
2024-05-22 04:35:00,SystemResetWarning,0829.3,5.00,000.00,026.6,025.8,000.0,035.0,028.4,010.3,0000.0,0002.54,0001.88,0001.53
2024-05-22 04:36:00,SystemResetWarning,0829.4,5.00,000.00,026.6,025.8,000.0,034.9,028.4,009.9,0000.0,0003.99,0001.91,0001.54
2024-05-22 04:37:00,SystemResetWarning,0829.3,5.00,000.00,026.6,025.8,000.0,034.9,028.4,009.8,0000.0,0004.04,0001.90,0001.54
2024-05-22 04:38:00,SystemResetWarning,0829.4,5.01,000.00,026.6,025.8,000.0,034.9,028.4,009.8,0000.0,0004.08,0001.88,0001.54
2024-05-22 04:39:00,SystemResetWarning,0829.3,5.00,000.00,026.6,025.8,000.0,034.9,028.4,009.8,0000.0,0004.09,0001.89,0001.55
2024-05-22 04:40:00,SystemResetWarning,0829.4,5.00,000.00,026.6,025.8,000.0,034.9,028.4,009.9,0000.0,0004.03,0001.87,0001.55
2024-05-22 04:41:00,SystemResetWarning,0829.3,5.00,000.00,026.6,025.8,000.0,034.9,028.4,009.8,0000.0,0003.98,0001.86,0001.54
2024-05-22 04:42:00,SystemResetWarning,0829.3,5.00,000.00,026.6,025.8,000.0,034.9,028.4,009.8,0000.0,0003.91,0001.86,0001.55
2024-05-22 04:43:00,SystemResetWarning,0829.3,5.00,000.00,026.6,025.8,000.0,034.9,028.4,009.9,0000.0,0004.00,0001.88,0001.56
2024-05-22 04:44:00,SystemResetWarning,0829.2,5.00,000.00,026.6,025.8,000.0,034.9,028.4,010.0,0000.0,0004.01,0001.86,0001.55
2024-05-22 04:45:00,SystemResetWarning,0829.2,5.00,000.00,026.6,025.8,000.0,034.9,028.4,010.1,0000.0,0003.94,0001.84,0001.56
2024-05-22 04:46:00,SystemResetWarning,0829.1,5.00,000.00,026.6,025.9,000.0,034.9,028.4,009.9,0000.0,0004.06,0001.86,0001.57
2024-05-22 04:47:00,SystemResetWarning,0829.1,5.01,000.00,026.6,025.9,000.0,034.9,028.4,009.2,0000.0,0002.99,0001.85,0001.57
2024-05-22 04:48:00,SystemResetWarning,0829.1,5.00,000.00,026.6,025.9,000.0,034.9,028.4,009.3,0000.0,0002.66,0001.86,0001.58
2024-05-22 04:49:00,SystemResetWarning,0829.1,5.00,000.00,026.6,025.9,000.0,034.9,028.4,009.6,0000.0,0002.50,0001.86,0001.60
2024-05-22 04:50:00,SystemResetWarning,0829.1,5.00,000.00,026.6,025.9,000.0,034.9,028.4,009.7,0000.0,0002.43,0001.84,0001.60
2024-05-22 04:51:00,SystemResetWarning,0829.2,5.00,000.00,026.6,025.9,000.0,034.9,028.4,009.8,0000.0,0002.42,0001.85,0001.61
2024-05-22 04:52:00,SystemResetWarning,0829.3,5.00,000.00,026.6,025.9,000.0,034.9,028.4,009.9,0000.0,0002.46,0001.87,0001.63
2024-05-22 04:53:00,SystemResetWarning,0829.2,5.00,000.00,026.6,025.9,000.0,034.9,028.4,009.9,0000.0,0002.42,0001.84,0001.62
2024-05-22 04:54:00,SystemResetWarning,0829.3,4.99,000.00,026.6,025.9,000.0,034.9,028.4,009.8,0000.0,0002.37,0001.82,0001.61
2024-05-22 04:55:00,SystemResetWarning,0829.4,5.00,000.00,026.6,025.9,000.0,034.9,028.4,009.8,0000.0,0002.38,0001.85,0001.61
2024-05-22 04:56:00,SystemResetWarning,0829.4,4.99,000.00,026.6,025.8,000.0,035.0,028.4,009.7,0000.0,0002.38,0001.85,0001.61
2024-05-22 04:57:00,SystemResetWarning,0829.3,4.99,000.00,026.6,025.8,000.0,035.0,028.4,009.6,0000.0,0002.26,0001.82,0001.61
2024-05-22 04:58:00,SystemResetWarning,0829.4,5.00,000.00,026.6,025.8,000.0,034.9,028.4,009.7,0000.0,0002.21,0001.82,0001.63
2024-05-22 04:59:00,SystemResetWarning,0829.4,5.01,000.00,026.6,025.8,000.0,035.0,028.4,009.8,0000.0,0002.21,0001.81,0001.61
